Zurück zum Katalog

SL-8 R/B

AktivPO
NORAD 12088·ROCKET BODY·🇷🇺 Russia

Gestartet Dec 5, 1980 von Plesetsk Cosmodrome

Loading…

Nächste Überflüge (nächste 24 Stunden)

TLE

AktuellSource: Space-Track

Epoche: Sep 14, 2026, 05:38 UTC

1 12088U 80097B   26257.23526199  .00000063  00000-0  48098-4 0  9994
2 12088  82.9472 352.4752 0048181 337.1739  22.7276 13.77346963299652

Verfolge SL-8 R/B in Echtzeit mit AllMySat

Download on the App Store